Cancun, Mexico

5:50 AM on July 23, 2018 (GMT +0000)
Cancun International

Weather History for MMUN - January, 2018

Change the Weather History Date:

Saturday, January 13, 2018

  Actual Average Record
Temperature  
Mean Temperature 65 °F -  
Max Temperature 75 °F 81 °F 86 °F (2006)
Min Temperature 55 °F 64 °F 55 °F (2018)
Growing Degree Days 15 (Base 50)    
Moisture  
Dew Point 55 °F    
Average Humidity 76    
Maximum Humidity 94    
Minimum Humidity 47    
Precipitation  
Precipitation 0.00 in - - ()
Sea Level Pressure  
Sea Level Pressure 30.18 in    
Wind  
Wind Speed 4 mph ()    
Max Wind Speed 13 mph    
Max Gust Speed -    
Visibility 7.0 miles    
Events      
Averages and records for this station are not official NWS values.
T = Trace of Precipitation, MM = Missing Value Source: Averaged Metar Reports

Daily Weather History Graph

Daily Weather History Graph

Search for Another Location

Airport or City:

Astronomy

Jan. 13, 2018 Rise Set
Actual Time 7:27 AM EST 6:25 PM EST
Civil Twilight 7:03 AM EST 6:49 PM EST
Nautical Twilight 6:35 AM EST 7:16 PM EST
Astronomical Twilight 6:08 AM EST 7:43 PM EST
Moon 4:34 AM EST (1/13) 3:57 PM EST (1/13)
Length of Visible Light 11h 46m
Length of Day
10h 58m
Waning Crescent, 10% of the Moon is Illuminated
Jan 13
Waning Crescent
Jan 16
New
Jan 24
First Quarter
Jan 31
Full
Feb 7
Last Quarter

Hourly Weather History & Observations

Time (EST) Temp. Dew Point Humidity Pressure Visibility Wind Dir Wind Speed Gust Speed Precip Events Conditions
12:44 AM 59.0 °F 57.2 °F 94% 30.12 in 7.0 mi North 2.3 mph - N/A   Clear
1:45 AM 59.0 °F 57.2 °F 94% 30.11 in 7.0 mi NNW 2.3 mph - N/A   Clear
2:45 AM 57.2 °F 55.4 °F 94% 30.10 in 7.0 mi NW 2.3 mph - N/A   Clear
3:45 AM 55.4 °F 53.6 °F 94% 30.10 in 7.0 mi Calm Calm - N/A   Clear
4:44 AM 55.4 °F 53.6 °F 94% 30.11 in 7.0 mi West 3.5 mph - N/A   Clear
5:44 AM 55.4 °F 53.6 °F 94% 30.12 in 7.0 mi West 3.5 mph - N/A   Clear
6:45 AM 55.4 °F 51.8 °F 88% 30.14 in 7.0 mi WNW 4.6 mph - N/A   Scattered Clouds
7:44 AM 55.4 °F 51.8 °F 88% 30.16 in 7.0 mi North - - N/A   Partly Cloudy
8:45 AM 59.0 °F 55.4 °F 88% 30.17 in 7.0 mi NNW 2.3 mph - N/A   Mostly Cloudy
9:46 AM 68.0 °F 57.2 °F 68% 30.20 in 7.0 mi NW 4.6 mph - N/A   Mostly Cloudy
10:41 AM 69.8 °F 57.2 °F 64% 30.21 in 7.0 mi NNW 5.8 mph - N/A   Mostly Cloudy
11:42 AM 73.4 °F 57.2 °F 57% 30.20 in 7.0 mi NW 10.4 mph - N/A   Mostly Cloudy
12:42 PM 73.4 °F 53.6 °F 50% 30.20 in 7.0 mi NNW 11.5 mph - N/A   Mostly Cloudy
1:43 PM 73.4 °F 55.4 °F 53% 30.18 in 7.0 mi NNW 11.5 mph - N/A   Mostly Cloudy
2:43 PM 75.2 °F 53.6 °F 47% 30.17 in 7.0 mi NNW 11.5 mph - N/A   Mostly Cloudy
3:51 PM 73.4 °F 55.4 °F 53% 30.17 in 7.0 mi NNW 12.7 mph - N/A   Mostly Cloudy
4:51 PM 73.4 °F 55.4 °F 53% 30.18 in 7.0 mi North 8.1 mph - N/A   Mostly Cloudy
5:42 PM 71.6 °F 55.4 °F 57% 30.19 in 7.0 mi NNW 10.4 mph - N/A   Partly Cloudy
6:40 PM 68.0 °F 55.4 °F 64% 30.22 in 7.0 mi NNW 6.9 mph - N/A   Clear
7:43 PM 62.6 °F 55.4 °F 77% 30.24 in 7.0 mi NW 4.6 mph - N/A   Clear
8:43 PM 60.8 °F 55.4 °F 82% 30.26 in 7.0 mi NW 4.6 mph - N/A   Clear
9:48 PM 60.8 °F 57.2 °F 88% 30.29 in 7.0 mi NW 5.8 mph - N/A   Clear
10:47 PM 59.0 °F 57.2 °F 94% 30.28 in 7.0 mi NW 5.8 mph - N/A   Clear
11:46 PM 59.0 °F 55.4 °F 88% 30.28 in 7.0 mi NW 5.8 mph - N/A   Clear